Time,TemperatureF,DewpointF,PressureIn,WindDirection,WindDirectionDegrees,WindSpeedMPH,WindSpeedGustMPH,Humidity,HourlyPrecipIn,Conditions,Clouds,dailyrainin,SoftwareType,DateUTC
2013-02-20 00:03:00,38.7,38.7,29.57,SW,218,0.0,0.0,100,0.01,,OVC039,0.00,VWS V14.00,2013-02-20 05:03:00,
2013-02-20 00:08:00,38.5,38.5,29.57,SW,218,0.0,2.0,100,0.01,,OVC039,0.00,VWS V14.00,2013-02-20 05:08:00,
2013-02-20 00:13:00,38.5,38.5,29.56,SW,218,0.0,2.0,100,0.01,,OVC039,0.00,VWS V14.00,2013-02-20 05:13:00,
2013-02-20 00:18:00,38.4,38.4,29.56,SW,218,0.0,2.0,100,0.01,,OVC039,0.00,VWS V14.00,2013-02-20 05:18:00,
2013-02-20 00:23:00,38.1,38.1,29.56,SW,218,0.0,2.0,100,0.01,,OVC039,0.00,VWS V14.00,2013-02-20 05:23:00,
2013-02-20 00:28:00,38.0,38.0,29.56,SW,218,0.0,2.0,100,0.01,,OVC039,0.00,VWS V14.00,2013-02-20 05:28:00,
2013-02-20 00:33:00,37.8,37.8,29.55,SW,218,0.0,0.0,100,0.01,,OVC039,0.00,VWS V14.00,2013-02-20 05:33:00,
2013-02-20 00:38:00,37.8,37.8,29.55,SW,218,0.0,0.0,100,0.01,,OVC039,0.00,VWS V14.00,2013-02-20 05:38:00,
2013-02-20 00:43:00,37.7,37.7,29.54,SW,218,0.0,1.0,100,0.01,,OVC039,0.00,VWS V14.00,2013-02-20 05:43:00,
2013-02-20 00:48:00,37.4,37.4,29.54,SW,218,0.0,1.0,100,0.00,,OVC039,0.00,VWS V14.00,2013-02-20 05:48:00,
2013-02-20 00:53:00,37.4,37.4,29.53,SW,218,0.0,1.0,100,0.00,,OVC039,0.00,VWS V14.00,2013-02-20 05:53:00,
2013-02-20 00:58:00,37.3,37.3,29.53,SW,218,0.0,1.0,100,0.00,,OVC039,0.00,VWS V14.00,2013-02-20 05:58:00,
2013-02-20 01:03:00,37.1,37.1,29.54,SW,218,0.0,0.0,100,0.00,,OVC047,0.00,VWS V14.00,2013-02-20 06:03:00,
2013-02-20 01:08:00,36.8,36.8,29.54,SW,218,0.0,0.0,100,0.00,,OVC047,0.00,VWS V14.00,2013-02-20 06:08:00,
2013-02-20 01:13:00,36.8,36.8,29.54,SW,218,0.0,0.0,100,0.00,,OVC047,0.00,VWS V14.00,2013-02-20 06:13:00,
2013-02-20 01:18:00,36.5,36.5,29.54,SW,218,0.0,0.0,100,0.00,,OVC047,0.00,VWS V14.00,2013-02-20 06:18:00,
2013-02-20 01:23:00,36.3,36.3,29.55,SW,218,0.0,0.0,100,0.00,,OVC047,0.00,VWS V14.00,2013-02-20 06:23:00,
2013-02-20 01:28:00,36.1,36.1,29.55,SW,218,0.0,0.0,100,0.00,,OVC047,0.00,VWS V14.00,2013-02-20 06:28:00,
2013-02-20 01:33:00,36.1,36.1,29.55,SW,218,0.0,1.0,100,0.00,,OVC047,0.00,VWS V14.00,2013-02-20 06:33:00,
2013-02-20 01:38:00,36.3,36.3,29.55,SW,218,0.0,2.0,100,0.00,,OVC047,0.00,VWS V14.00,2013-02-20 06:38:00,
2013-02-20 01:43:00,36.5,36.5,29.55,SW,218,0.0,4.0,100,0.00,,OVC047,0.00,VWS V14.00,2013-02-20 06:43:00,
2013-02-20 01:48:00,36.5,36.5,29.55,SW,218,0.0,4.0,100,0.00,,OVC047,0.00,VWS V14.00,2013-02-20 06:48:00,
2013-02-20 01:53:00,36.5,36.5,29.55,SW,218,0.0,4.0,100,0.00,,OVC047,0.00,VWS V14.00,2013-02-20 06:53:00,
2013-02-20 01:58:00,36.7,36.7,29.55,SW,218,0.0,4.0,100,0.00,,OVC047,0.00,VWS V14.00,2013-02-20 06:58:00,
2013-02-20 02:03:00,36.7,36.7,29.55,WNW,289,2.0,4.0,100,0.00,,BKN100,0.00,VWS V14.00,2013-02-20 07:03:00,
2013-02-20 02:08:00,36.7,36.7,29.55,WNW,303,2.0,4.0,100,0.00,,BKN100,0.00,VWS V14.00,2013-02-20 07:08:00,
2013-02-20 02:13:00,36.7,36.7,29.55,South,185,0.0,4.0,100,0.00,,BKN100,0.00,VWS V14.00,2013-02-20 07:13:00,
2013-02-20 02:18:00,36.7,36.7,29.54,South,191,0.0,4.0,100,0.00,,BKN100,0.00,VWS V14.00,2013-02-20 07:18:00,
2013-02-20 02:23:00,36.7,36.7,29.54,SSW,192,0.0,4.0,100,0.00,,BKN100,0.00,VWS V14.00,2013-02-20 07:23:00,
2013-02-20 02:28:00,36.5,36.5,29.54,SSW,192,0.0,4.0,100,0.00,,BKN100,0.00,VWS V14.00,2013-02-20 07:28:00,
2013-02-20 02:33:00,36.4,36.4,29.54,SSW,192,0.0,2.0,100,0.00,,BKN100,0.00,VWS V14.00,2013-02-20 07:33:00,
2013-02-20 02:38:00,36.3,36.3,29.53,SSW,205,1.0,3.0,100,0.00,,BKN100,0.00,VWS V14.00,2013-02-20 07:38:00,
2013-02-20 02:43:00,36.1,36.1,29.54,SSW,206,0.0,3.0,100,0.00,,BKN100,0.00,VWS V14.00,2013-02-20 07:43:00,
2013-02-20 02:48:00,36.0,36.0,29.54,SSW,206,0.0,3.0,100,0.00,,BKN100,0.00,VWS V14.00,2013-02-20 07:48:00,
2013-02-20 02:53:00,35.8,35.8,29.54,SSW,206,0.0,3.0,100,0.00,,BKN100,0.00,VWS V14.00,2013-02-20 07:53:00,
2013-02-20 02:58:00,35.7,35.5,29.54,SSW,206,0.0,3.0,99,0.00,,BKN100,0.00,VWS V14.00,2013-02-20 07:58:00,
2013-02-20 03:05:00,35.7,35.7,29.54,SSW,207,0.0,4.0,100,0.00,,BKN045,0.00,VWS V14.00,2013-02-20 08:05:00,
2013-02-20 03:10:00,35.7,35.7,29.54,WSW,249,1.0,10.0,100,0.00,,BKN045,0.00,VWS V14.00,2013-02-20 08:10:00,
2013-02-20 03:15:00,35.3,35.3,29.54,NNW,331,7.0,14.0,100,0.00,,BKN045,0.00,VWS V14.00,2013-02-20 08:15:00,
2013-02-20 03:20:00,34.7,34.5,29.55,NW,310,5.0,17.0,99,0.00,,BKN045,0.00,VWS V14.00,2013-02-20 08:20:00,
2013-02-20 03:25:00,34.3,33.8,29.55,NW,321,3.0,17.0,98,0.00,,BKN045,0.00,VWS V14.00,2013-02-20 08:25:00,
2013-02-20 03:30:00,33.8,33.3,29.55,NNW,329,5.0,5.0,98,0.00,,BKN045,0.00,VWS V14.00,2013-02-20 08:30:00,
2013-02-20 03:35:00,33.7,33.2,29.54,NW,310,3.0,10.0,98,0.00,,BKN045,0.00,VWS V14.00,2013-02-20 08:35:00,
2013-02-20 03:40:00,33.5,33.0,29.55,North,355,1.0,10.0,98,0.00,,BKN045,0.00,VWS V14.00,2013-02-20 08:40:00,
2013-02-20 03:45:00,33.4,32.9,29.55,North,0,0.0,10.0,98,0.00,,BKN045,0.00,VWS V14.00,2013-02-20 08:45:00,
2013-02-20 03:50:00,33.3,32.8,29.56,NW,311,3.0,10.0,98,0.00,,BKN045,0.00,VWS V14.00,2013-02-20 08:50:00,
2013-02-20 03:55:00,33.1,32.6,29.56,West,261,0.0,10.0,98,0.00,,BKN045,0.00,VWS V14.00,2013-02-20 08:55:00,
2013-02-20 04:00:00,32.7,31.9,29.56,West,275,7.0,8.0,97,0.00,,OVC060,0.00,VWS V14.00,2013-02-20 09:00:00,
2013-02-20 04:05:00,32.6,31.8,29.56,NW,318,2.0,8.0,97,0.00,,OVC060,0.00,VWS V14.00,2013-02-20 09:05:00,
2013-02-20 04:10:00,32.6,31.8,29.56,NW,321,3.0,8.0,97,0.00,,OVC060,0.00,VWS V14.00,2013-02-20 09:10:00,
2013-02-20 04:15:00,32.5,31.7,29.56,North,359,3.0,12.0,97,0.00,,OVC060,0.00,VWS V14.00,2013-02-20 09:15:00,
2013-02-20 04:20:00,32.5,31.5,29.56,NNW,334,4.0,12.0,96,0.00,,OVC060,0.00,VWS V14.00,2013-02-20 09:20:00,
2013-02-20 04:25:00,32.5,31.2,29.56,NNW,345,3.0,12.0,95,0.00,,OVC060,0.00,VWS V14.00,2013-02-20 09:25:00,
2013-02-20 04:30:00,32.3,30.8,29.57,WSW,251,0.0,6.0,94,0.00,,OVC060,0.00,VWS V14.00,2013-02-20 09:30:00,
2013-02-20 04:35:00,32.2,30.7,29.57,SW,235,4.0,14.0,94,0.00,,OVC060,0.00,VWS V14.00,2013-02-20 09:35:00,
2013-02-20 04:40:00,32.0,30.2,29.57,WNW,300,2.0,14.0,93,0.00,,OVC060,0.00,VWS V14.00,2013-02-20 09:40:00,
2013-02-20 04:45:00,31.9,29.8,29.57,WNW,291,2.0,14.0,92,0.00,,OVC060,0.00,VWS V14.00,2013-02-20 09:45:00,
2013-02-20 04:50:00,31.7,29.4,29.57,NNW,339,2.0,14.0,91,0.00,,OVC060,0.00,VWS V14.00,2013-02-20 09:50:00,
2013-02-20 04:55:00,31.4,28.8,29.58,NW,326,0.0,14.0,90,0.00,,OVC060,0.00,VWS V14.00,2013-02-20 09:55:00,
2013-02-20 05:00:00,31.3,28.7,29.57,NNW,339,7.0,7.0,90,0.00,,BKN070,0.00,VWS V14.00,2013-02-20 10:00:00,
2013-02-20 05:05:00,31.1,28.5,29.58,WNW,298,3.0,9.0,90,0.00,,BKN070,0.00,VWS V14.00,2013-02-20 10:05:00,
2013-02-20 05:10:00,31.1,28.2,29.58,West,261,1.0,9.0,89,0.00,,BKN070,0.00,VWS V14.00,2013-02-20 10:10:00,
2013-02-20 05:15:00,31.1,28.0,29.58,NNW,331,2.0,9.0,88,0.00,,BKN070,0.00,VWS V14.00,2013-02-20 10:15:00,
2013-02-20 05:20:00,31.0,27.6,29.58,NNW,340,3.0,19.0,87,0.00,,BKN070,0.00,VWS V14.00,2013-02-20 10:20:00,
2013-02-20 05:25:00,30.8,26.8,29.58,WSW,245,2.0,19.0,85,0.00,,BKN070,0.00,VWS V14.00,2013-02-20 10:25:00,
2013-02-20 05:30:00,30.8,26.5,29.59,West,276,5.0,9.0,84,0.00,,BKN070,0.00,VWS V14.00,2013-02-20 10:30:00,
2013-02-20 05:35:00,30.8,26.0,29.59,WSW,251,0.0,12.0,82,0.00,,BKN070,0.00,VWS V14.00,2013-02-20 10:35:00,
2013-02-20 05:40:00,30.7,25.9,29.59,West,265,1.0,12.0,82,0.00,,BKN070,0.00,VWS V14.00,2013-02-20 10:40:00,
2013-02-20 05:45:00,30.4,25.3,29.59,West,266,1.0,12.0,81,0.00,,BKN070,0.00,VWS V14.00,2013-02-20 10:45:00,
2013-02-20 05:50:00,30.4,25.3,29.59,West,275,0.0,12.0,81,0.00,,BKN070,0.00,VWS V14.00,2013-02-20 10:50:00,
2013-02-20 05:55:00,30.2,25.1,29.59,North,353,6.0,20.0,81,0.00,,BKN070,0.00,VWS V14.00,2013-02-20 10:55:00,
2013-02-20 06:00:00,30.4,25.0,29.59,NW,319,0.0,3.0,80,0.00,,BKN070,0.00,VWS V14.00,2013-02-20 11:00:00,
2013-02-20 06:05:00,30.4,24.7,29.59,WNW,285,0.0,10.0,79,0.00,,BKN070,0.00,VWS V14.00,2013-02-20 11:05:00,
2013-02-20 06:10:00,30.3,24.6,29.59,West,276,0.0,10.0,79,0.00,,BKN070,0.00,VWS V14.00,2013-02-20 11:10:00,
2013-02-20 06:15:00,30.3,24.3,29.59,NNW,329,3.0,11.0,78,0.00,,BKN070,0.00,VWS V14.00,2013-02-20 11:15:00,
2013-02-20 06:20:00,30.3,24.0,29.60,NW,316,1.0,13.0,77,0.00,,BKN070,0.00,VWS V14.00,2013-02-20 11:20:00,
2013-02-20 06:25:00,30.1,23.8,29.60,WNW,302,1.0,13.0,77,0.00,,BKN070,0.00,VWS V14.00,2013-02-20 11:25:00,
2013-02-20 06:30:00,30.0,23.7,29.61,WNW,290,2.0,4.0,77,0.00,,BKN070,0.00,VWS V14.00,2013-02-20 11:30:00,
2013-02-20 06:35:00,29.8,23.2,29.61,NNW,327,0.0,6.0,76,0.00,,BKN070,0.00,VWS V14.00,2013-02-20 11:35:00,
2013-02-20 06:40:00,29.5,22.9,29.61,NNE,12,4.0,14.0,76,0.00,,BKN070,0.00,VWS V14.00,2013-02-20 11:40:00,
2013-02-20 06:45:00,29.5,22.6,29.61,NNE,24,3.0,14.0,75,0.00,,BKN070,0.00,VWS V14.00,2013-02-20 11:45:00,
2013-02-20 06:50:00,29.2,22.0,29.61,NW,321,5.0,14.0,74,0.00,,BKN070,0.00,VWS V14.00,2013-02-20 11:50:00,
2013-02-20 06:55:00,29.0,21.4,29.62,NNW,335,10.0,14.0,73,0.00,,BKN070,0.00,VWS V14.00,2013-02-20 11:55:00,
2013-02-20 07:00:00,29.0,21.1,29.62,NW,312,0.0,7.0,72,0.00,,BKN080,0.00,VWS V14.00,2013-02-20 12:00:00,
2013-02-20 07:05:00,28.9,21.0,29.63,SW,234,3.0,9.0,72,0.00,,BKN080,0.00,VWS V14.00,2013-02-20 12:05:00,
2013-02-20 07:10:00,28.7,20.5,29.62,NW,319,2.0,17.0,71,0.00,,BKN080,0.00,VWS V14.00,2013-02-20 12:10:00,
2013-02-20 07:15:00,28.6,20.1,29.64,NNW,334,3.0,21.0,70,0.00,,BKN080,0.00,VWS V14.00,2013-02-20 12:15:00,
2013-02-20 07:20:00,28.5,20.0,29.64,WNW,287,10.0,21.0,70,0.00,,BKN080,0.00,VWS V14.00,2013-02-20 12:20:00,
2013-02-20 07:25:00,28.3,19.8,29.64,South,191,4.0,21.0,70,0.00,,BKN080,0.00,VWS V14.00,2013-02-20 12:25:00,
2013-02-20 07:30:00,28.3,19.5,29.64,NW,312,3.0,13.0,69,0.00,,BKN080,0.00,VWS V14.00,2013-02-20 12:30:00,
2013-02-20 07:35:00,28.3,19.5,29.64,NW,316,1.0,16.0,69,0.00,,BKN080,0.00,VWS V14.00,2013-02-20 12:35:00,
2013-02-20 07:40:00,28.3,19.8,29.64,NNW,329,2.0,16.0,70,0.00,,BKN080,0.00,VWS V14.00,2013-02-20 12:40:00,
2013-02-20 07:45:00,28.3,19.8,29.64,West,271,7.0,16.0,70,0.00,,BKN080,0.00,VWS V14.00,2013-02-20 12:45:00,
2013-02-20 07:50:00,28.3,19.8,29.64,North,352,3.0,16.0,70,0.00,,BKN080,0.00,VWS V14.00,2013-02-20 12:50:00,
2013-02-20 07:55:00,28.3,19.5,29.64,WSW,241,6.0,16.0,69,0.00,,BKN080,0.00,VWS V14.00,2013-02-20 12:55:00,
2013-02-20 08:00:00,28.3,19.8,29.65,NW,326,3.0,7.0,70,0.00,,CLR,0.00,VWS V14.00,2013-02-20 13:00:00,
2013-02-20 08:05:00,28.5,19.6,29.65,NW,317,3.0,7.0,69,0.00,,CLR,0.00,VWS V14.00,2013-02-20 13:05:00,
2013-02-20 08:10:00,28.6,19.7,29.65,North,1,2.0,11.0,69,0.00,,CLR,0.00,VWS V14.00,2013-02-20 13:10:00,
2013-02-20 08:15:00,28.7,19.8,29.65,NW,316,3.0,18.0,69,0.00,,CLR,0.00,VWS V14.00,2013-02-20 13:15:00,
2013-02-20 08:20:00,28.9,20.0,29.65,North,354,4.0,18.0,69,0.00,,CLR,0.00,VWS V14.00,2013-02-20 13:20:00,
2013-02-20 08:25:00,29.1,19.9,29.65,West,270,5.0,18.0,68,0.00,,CLR,0.00,VWS V14.00,2013-02-20 13:25:00,
2013-02-20 08:30:00,29.2,20.0,29.65,NNW,331,7.0,7.0,68,0.00,,CLR,0.00,VWS V14.00,2013-02-20 13:30:00,
2013-02-20 08:35:00,29.3,20.1,29.65,West,277,3.0,9.0,68,0.00,,CLR,0.00,VWS V14.00,2013-02-20 13:35:00,
2013-02-20 08:40:00,29.5,20.3,29.65,SSW,202,4.0,9.0,68,0.00,,CLR,0.00,VWS V14.00,2013-02-20 13:40:00,
2013-02-20 08:45:00,29.7,20.1,29.65,SW,224,5.0,16.0,67,0.00,,CLR,0.00,VWS V14.00,2013-02-20 13:45:00,
2013-02-20 08:50:00,29.6,19.6,29.65,SSW,210,3.0,16.0,66,0.00,,CLR,0.00,VWS V14.00,2013-02-20 13:50:00,
2013-02-20 08:55:00,29.6,19.3,29.65,North,356,2.0,16.0,65,0.00,,CLR,0.00,VWS V14.00,2013-02-20 13:55:00,
2013-02-20 09:00:00,29.8,19.5,29.65,NW,312,4.0,9.0,65,0.00,,SCT080,0.00,VWS V14.00,2013-02-20 14:00:00,
2013-02-20 09:05:00,30.1,19.8,29.65,NNW,332,2.0,19.0,65,0.00,,SCT080,0.00,VWS V14.00,2013-02-20 14:05:00,
2013-02-20 09:10:00,30.3,20.0,29.65,North,353,4.0,19.0,65,0.00,,SCT080,0.00,VWS V14.00,2013-02-20 14:10:00,
2013-02-20 09:15:00,30.5,19.8,29.65,WNW,301,2.0,19.0,64,0.00,,SCT080,0.00,VWS V14.00,2013-02-20 14:15:00,
2013-02-20 09:20:00,30.7,20.0,29.66,NNW,337,6.0,19.0,64,0.00,,SCT080,0.00,VWS V14.00,2013-02-20 14:20:00,
2013-02-20 09:25:00,30.3,18.9,29.66,WNW,296,5.0,19.0,62,0.00,,SCT080,0.00,VWS V14.00,2013-02-20 14:25:00,
2013-02-20 09:30:00,30.2,19.5,29.65,NNW,342,2.0,7.0,64,0.00,,SCT080,0.00,VWS V14.00,2013-02-20 14:30:00,
2013-02-20 09:35:00,30.5,19.0,29.65,NNW,336,3.0,14.0,62,0.00,,SCT080,0.00,VWS V14.00,2013-02-20 14:35:00,
2013-02-20 09:40:00,30.8,19.7,29.64,NNE,14,9.0,14.0,63,0.00,,SCT080,0.00,VWS V14.00,2013-02-20 14:40:00,
2013-02-20 09:45:00,30.8,20.1,29.65,WNW,303,3.0,15.0,64,0.00,,SCT080,0.00,VWS V14.00,2013-02-20 14:45:00,
2013-02-20 09:50:00,31.3,20.5,29.65,WNW,287,4.0,15.0,64,0.00,,SCT080,0.00,VWS V14.00,2013-02-20 14:50:00,
2013-02-20 09:55:00,31.3,20.5,29.65,North,3,4.0,15.0,64,0.00,,SCT080,0.00,VWS V14.00,2013-02-20 14:55:00,
2013-02-20 10:00:00,31.1,20.0,29.65,NW,326,5.0,10.0,63,0.00,,OVC044,0.00,VWS V14.00,2013-02-20 15:00:00,
2013-02-20 10:05:00,30.8,19.7,29.65,WSW,258,12.0,12.0,63,0.00,,OVC044,0.00,VWS V14.00,2013-02-20 15:05:00,
2013-02-20 10:10:00,30.6,19.1,29.65,WNW,290,6.0,14.0,62,0.00,,OVC044,0.00,VWS V14.00,2013-02-20 15:10:00,
2013-02-20 10:15:00,30.5,19.4,29.65,WNW,296,1.0,14.0,63,0.00,,OVC044,0.00,VWS V14.00,2013-02-20 15:15:00,
2013-02-20 10:20:00,30.7,20.0,29.65,SSW,201,2.0,14.0,64,0.00,,OVC044,0.00,VWS V14.00,2013-02-20 15:20:00,
2013-02-20 10:25:00,30.5,19.4,29.65,SSW,206,3.0,14.0,63,0.00,,OVC044,0.00,VWS V14.00,2013-02-20 15:25:00,
2013-02-20 10:30:00,30.4,19.0,29.65,ESE,118,4.0,7.0,62,0.00,,OVC044,0.00,VWS V14.00,2013-02-20 15:30:00,
2013-02-20 10:35:00,30.3,19.2,29.65,WSW,240,4.0,11.0,63,0.00,,OVC044,0.00,VWS V14.00,2013-02-20 15:35:00,
2013-02-20 10:40:00,30.3,18.9,29.65,SSW,204,2.0,11.0,62,0.00,,OVC044,0.00,VWS V14.00,2013-02-20 15:40:00,
2013-02-20 10:45:00,30.7,19.2,29.65,SSE,157,2.0,11.0,62,0.00,,OVC044,0.00,VWS V14.00,2013-02-20 15:45:00,
2013-02-20 10:50:00,31.0,19.1,29.65,NNW,343,6.0,12.0,61,0.00,,OVC044,0.00,VWS V14.00,2013-02-20 15:50:00,
2013-02-20 10:55:00,30.8,18.6,29.65,West,280,10.0,13.0,60,0.00,,OVC044,0.00,VWS V14.00,2013-02-20 15:55:00,
2013-02-20 11:00:00,30.8,19.0,29.65,WNW,294,8.0,13.0,61,0.00,,BKN046,0.00,VWS V14.00,2013-02-20 16:00:00,
2013-02-20 11:05:00,31.1,19.2,29.65,NW,304,6.0,13.0,61,0.00,,BKN046,0.00,VWS V14.00,2013-02-20 16:05:00,
2013-02-20 11:10:00,31.0,19.1,29.65,NW,316,3.0,16.0,61,0.00,,BKN046,0.00,VWS V14.00,2013-02-20 16:10:00,
2013-02-20 11:15:00,31.0,19.1,29.65,NNW,344,3.0,16.0,61,0.00,,BKN046,0.00,VWS V14.00,2013-02-20 16:15:00,
2013-02-20 11:20:00,30.7,18.5,29.65,NW,312,2.0,16.0,60,0.00,,BKN046,0.00,VWS V14.00,2013-02-20 16:20:00,
2013-02-20 11:25:00,30.5,17.9,29.65,West,270,3.0,19.0,59,0.00,,BKN046,0.00,VWS V14.00,2013-02-20 16:25:00,
2013-02-20 11:30:00,30.6,18.0,29.65,North,356,10.0,11.0,59,0.00,,BKN046,0.00,VWS V14.00,2013-02-20 16:30:00,
2013-02-20 11:35:00,30.4,17.0,29.65,NNW,331,8.0,14.0,57,0.00,,BKN046,0.00,VWS V14.00,2013-02-20 16:35:00,
2013-02-20 11:40:00,30.4,17.8,29.65,WNW,288,4.0,14.0,59,0.00,,BKN046,0.00,VWS V14.00,2013-02-20 16:40:00,
2013-02-20 11:45:00,30.4,17.8,29.65,West,262,2.0,14.0,59,0.00,,BKN046,0.00,VWS V14.00,2013-02-20 16:45:00,
2013-02-20 11:50:00,30.5,18.3,29.65,NW,306,5.0,14.0,60,0.00,,BKN046,0.00,VWS V14.00,2013-02-20 16:50:00,
2013-02-20 11:55:00,30.7,18.5,29.65,WNW,282,5.0,14.0,60,0.00,,BKN046,0.00,VWS V14.00,2013-02-20 16:55:00,
2013-02-20 12:00:00,30.7,18.1,29.65,WNW,297,8.0,8.0,59,0.00,,OVC048,0.00,VWS V14.00,2013-02-20 17:00:00,
2013-02-20 12:05:00,30.8,17.0,29.65,WNW,290,4.0,19.0,56,0.00,,OVC048,0.00,VWS V14.00,2013-02-20 17:05:00,
2013-02-20 12:10:00,30.7,17.3,29.64,NNW,333,9.0,19.0,57,0.00,,OVC048,0.00,VWS V14.00,2013-02-20 17:10:00,
2013-02-20 12:15:00,30.8,17.0,29.64,WNW,285,4.0,19.0,56,0.00,,OVC048,0.00,VWS V14.00,2013-02-20 17:15:00,
2013-02-20 12:20:00,30.8,17.0,29.64,West,261,2.0,19.0,56,0.00,,OVC048,0.00,VWS V14.00,2013-02-20 17:20:00,
2013-02-20 12:25:00,30.8,17.0,29.64,West,267,4.0,19.0,56,0.00,,OVC048,0.00,VWS V14.00,2013-02-20 17:25:00,
2013-02-20 12:30:00,30.8,17.0,29.63,West,273,3.0,7.0,56,0.00,,OVC048,0.00,VWS V14.00,2013-02-20 17:30:00,
2013-02-20 12:35:00,30.8,17.0,29.64,NNW,338,6.0,14.0,56,0.00,,OVC048,0.00,VWS V14.00,2013-02-20 17:35:00,
2013-02-20 12:40:00,30.7,16.0,29.63,NNW,343,4.0,19.0,54,0.00,,OVC048,0.00,VWS V14.00,2013-02-20 17:40:00,
2013-02-20 12:45:00,30.8,17.0,29.64,WNW,301,3.0,19.0,56,0.00,,OVC048,0.00,VWS V14.00,2013-02-20 17:45:00,
2013-02-20 12:50:00,30.8,16.5,29.63,SW,224,1.0,19.0,55,0.00,,OVC048,0.00,VWS V14.00,2013-02-20 17:50:00,
2013-02-20 12:55:00,30.5,15.9,29.63,NNW,343,3.0,19.0,54,0.00,,OVC048,0.00,VWS V14.00,2013-02-20 17:55:00,
2013-02-20 13:00:00,30.2,15.6,29.63,SSW,201,10.0,13.0,54,0.00,,OVC050,0.00,VWS V14.00,2013-02-20 18:00:00,
2013-02-20 13:05:00,30.1,14.6,29.63,NW,312,10.0,19.0,52,0.00,,OVC050,0.00,VWS V14.00,2013-02-20 18:05:00,
2013-02-20 13:10:00,30.6,15.9,29.63,WSW,241,7.0,23.0,54,0.00,,OVC050,0.00,VWS V14.00,2013-02-20 18:10:00,
2013-02-20 13:15:00,31.3,16.6,29.63,NW,322,5.0,23.0,54,0.00,,OVC050,0.00,VWS V14.00,2013-02-20 18:15:00,
2013-02-20 13:20:00,31.9,16.3,29.62,WSW,245,4.0,23.0,52,0.00,,OVC050,0.00,VWS V14.00,2013-02-20 18:20:00,
2013-02-20 13:25:00,31.7,16.1,29.63,NW,324,11.0,23.0,52,0.00,,OVC050,0.00,VWS V14.00,2013-02-20 18:25:00,
2013-02-20 13:30:00,31.6,15.1,29.63,NNW,332,8.0,17.0,50,0.00,,OVC050,0.00,VWS V14.00,2013-02-20 18:30:00,
2013-02-20 13:35:00,31.4,15.8,29.63,NW,318,8.0,17.0,52,0.00,,OVC050,0.00,VWS V14.00,2013-02-20 18:35:00,
2013-02-20 13:40:00,31.1,15.1,29.62,NE,36,4.0,17.0,51,0.00,,OVC050,0.00,VWS V14.00,2013-02-20 18:40:00,
2013-02-20 13:45:00,30.8,15.3,29.63,NNW,346,2.0,17.0,52,0.00,,OVC050,0.00,VWS V14.00,2013-02-20 18:45:00,
2013-02-20 13:50:00,31.0,15.4,29.62,NNW,327,3.0,17.0,52,0.00,,OVC050,0.00,VWS V14.00,2013-02-20 18:50:00,
2013-02-20 13:55:00,31.1,15.5,29.63,NNW,347,3.0,17.0,52,0.00,,OVC050,0.00,VWS V14.00,2013-02-20 18:55:00,
2013-02-20 14:00:00,31.3,15.7,29.63,NW,314,5.0,5.0,52,0.00,,OVC050,0.00,VWS V14.00,2013-02-20 19:00:00,
2013-02-20 14:05:00,31.0,15.4,29.63,ESE,110,8.0,13.0,52,0.00,,OVC050,0.00,VWS V14.00,2013-02-20 19:05:00,
2013-02-20 14:10:00,30.8,14.8,29.63,WNW,295,5.0,14.0,51,0.00,,OVC050,0.00,VWS V14.00,2013-02-20 19:10:00,
2013-02-20 14:15:00,30.6,14.6,29.63,South,180,3.0,14.0,51,0.00,,OVC050,0.00,VWS V14.00,2013-02-20 19:15:00,
2013-02-20 14:20:00,30.6,14.6,29.63,North,358,5.0,14.0,51,0.00,,OVC050,0.00,VWS V14.00,2013-02-20 19:20:00,
2013-02-20 14:25:00,30.6,15.1,29.63,WNW,290,4.0,14.0,52,0.00,,OVC050,0.00,VWS V14.00,2013-02-20 19:25:00,
2013-02-20 14:30:00,30.5,14.1,29.63,SSW,212,4.0,7.0,50,0.00,,OVC050,0.00,VWS V14.00,2013-02-20 19:30:00,
2013-02-20 14:35:00,30.5,15.0,29.63,WNW,289,4.0,14.0,52,0.00,,OVC050,0.00,VWS V14.00,2013-02-20 19:35:00,
2013-02-20 14:40:00,30.7,14.7,29.64,SE,128,10.0,14.0,51,0.00,,OVC050,0.00,VWS V14.00,2013-02-20 19:40:00,
2013-02-20 14:45:00,30.7,15.2,29.64,WSW,250,2.0,14.0,52,0.00,,OVC050,0.00,VWS V14.00,2013-02-20 19:45:00,
2013-02-20 14:50:00,30.7,14.3,29.64,WNW,302,8.0,14.0,50,0.00,,OVC050,0.00,VWS V14.00,2013-02-20 19:50:00,
2013-02-20 14:55:00,30.4,14.0,29.64,NNW,343,4.0,15.0,50,0.00,,OVC050,0.00,VWS V14.00,2013-02-20 19:55:00,
2013-02-20 15:00:00,30.1,13.3,29.64,North,353,3.0,12.0,49,0.00,,OVC050,0.00,VWS V14.00,2013-02-20 20:00:00,
2013-02-20 15:05:00,30.2,13.8,29.64,SW,224,1.0,12.0,50,0.00,,OVC050,0.00,VWS V14.00,2013-02-20 20:05:00,
2013-02-20 15:10:00,30.4,14.0,29.64,West,279,1.0,18.0,50,0.00,,OVC050,0.00,VWS V14.00,2013-02-20 20:10:00,
2013-02-20 15:15:00,30.7,14.3,29.64,West,273,4.0,18.0,50,0.00,,OVC050,0.00,VWS V14.00,2013-02-20 20:15:00,
2013-02-20 15:20:00,31.0,14.1,29.64,WSW,240,3.0,18.0,49,0.00,,OVC050,0.00,VWS V14.00,2013-02-20 20:20:00,
2013-02-20 15:25:00,30.7,13.8,29.65,WNW,303,5.0,18.0,49,0.00,,OVC050,0.00,VWS V14.00,2013-02-20 20:25:00,
2013-02-20 15:30:00,30.2,12.9,29.65,NW,311,5.0,11.0,48,0.00,,OVC050,0.00,VWS V14.00,2013-02-20 20:30:00,
2013-02-20 15:35:00,30.0,13.2,29.65,NW,313,7.0,12.0,49,0.00,,OVC050,0.00,VWS V14.00,2013-02-20 20:35:00,
2013-02-20 15:40:00,30.0,12.7,29.65,WNW,291,7.0,19.0,48,0.00,,OVC050,0.00,VWS V14.00,2013-02-20 20:40:00,
2013-02-20 15:45:00,29.8,12.5,29.65,NW,315,3.0,22.0,48,0.00,,OVC050,0.00,VWS V14.00,2013-02-20 20:45:00,
2013-02-20 15:50:00,30.0,12.7,29.65,North,358,3.0,22.0,48,0.00,,OVC050,0.00,VWS V14.00,2013-02-20 20:50:00,
2013-02-20 15:55:00,30.0,13.2,29.66,WNW,287,6.0,22.0,49,0.00,,OVC050,0.00,VWS V14.00,2013-02-20 20:55:00,
2013-02-20 16:00:00,30.1,13.3,29.65,NW,304,6.0,10.0,49,0.00,,OVC050,0.00,VWS V14.00,2013-02-20 21:00:00,
2013-02-20 16:05:00,30.0,13.2,29.65,South,182,3.0,17.0,49,0.00,,OVC050,0.00,VWS V14.00,2013-02-20 21:05:00,
2013-02-20 16:10:00,29.6,12.8,29.65,North,349,9.0,17.0,49,0.00,,OVC050,0.00,VWS V14.00,2013-02-20 21:10:00,
2013-02-20 16:15:00,29.2,12.9,29.65,South,169,1.0,17.0,50,0.00,,OVC050,0.00,VWS V14.00,2013-02-20 21:15:00,
2013-02-20 16:20:00,29.0,12.7,29.66,WSW,254,11.0,17.0,50,0.00,,OVC050,0.00,VWS V14.00,2013-02-20 21:20:00,
2013-02-20 16:25:00,28.9,12.1,29.65,SSW,192,2.0,25.0,49,0.00,,OVC050,0.00,VWS V14.00,2013-02-20 21:25:00,
2013-02-20 16:30:00,28.6,11.9,29.66,ENE,57,8.0,14.0,49,0.00,,OVC050,0.00,VWS V14.00,2013-02-20 21:30:00,
2013-02-20 16:35:00,28.5,11.8,29.66,NW,318,2.0,18.0,49,0.00,,OVC050,0.00,VWS V14.00,2013-02-20 21:35:00,
2013-02-20 16:40:00,28.3,11.6,29.67,North,351,8.0,18.0,49,0.00,,OVC050,0.00,VWS V14.00,2013-02-20 21:40:00,
2013-02-20 16:45:00,28.1,11.4,29.66,NW,307,6.0,18.0,49,0.00,,OVC050,0.00,VWS V14.00,2013-02-20 21:45:00,
2013-02-20 16:50:00,28.0,11.3,29.67,NW,310,3.0,18.0,49,0.00,,OVC050,0.00,VWS V14.00,2013-02-20 21:50:00,
2013-02-20 16:55:00,27.9,11.2,29.67,NNW,334,7.0,18.0,49,0.00,,OVC050,0.00,VWS V14.00,2013-02-20 21:55:00,
2013-02-20 17:00:00,27.7,11.5,29.67,NW,309,2.0,6.0,50,0.00,,CLR,0.00,VWS V14.00,2013-02-20 22:00:00,
2013-02-20 17:05:00,27.6,11.4,29.68,NW,321,6.0,20.0,50,0.00,,CLR,0.00,VWS V14.00,2013-02-20 22:05:00,
2013-02-20 17:10:00,27.4,11.7,29.68,WSW,252,3.0,20.0,51,0.00,,CLR,0.00,VWS V14.00,2013-02-20 22:10:00,
2013-02-20 17:15:00,27.1,11.8,29.68,WSW,257,5.0,20.0,52,0.00,,CLR,0.00,VWS V14.00,2013-02-20 22:15:00,
2013-02-20 17:20:00,27.0,11.7,29.68,West,266,4.0,20.0,52,0.00,,CLR,0.00,VWS V14.00,2013-02-20 22:20:00,
2013-02-20 17:25:00,26.8,12.0,29.68,SW,226,8.0,20.0,53,0.00,,CLR,0.00,VWS V14.00,2013-02-20 22:25:00,
2013-02-20 17:30:00,26.7,11.9,29.68,NW,306,3.0,13.0,53,0.00,,CLR,0.00,VWS V14.00,2013-02-20 22:30:00,
2013-02-20 17:35:00,26.6,11.4,29.69,SSW,207,8.0,15.0,52,0.00,,CLR,0.00,VWS V14.00,2013-02-20 22:35:00,
2013-02-20 17:40:00,26.4,11.6,29.69,NW,313,7.0,16.0,53,0.00,,CLR,0.00,VWS V14.00,2013-02-20 22:40:00,
2013-02-20 17:45:00,26.4,11.6,29.69,WSW,248,8.0,16.0,53,0.00,,CLR,0.00,VWS V14.00,2013-02-20 22:45:00,
2013-02-20 17:50:00,26.2,11.8,29.69,South,188,4.0,16.0,54,0.00,,CLR,0.00,VWS V14.00,2013-02-20 22:50:00,
2013-02-20 17:55:00,26.1,11.3,29.69,NW,312,3.0,16.0,53,0.00,,CLR,0.00,VWS V14.00,2013-02-20 22:55:00,
2013-02-20 18:00:00,26.1,11.7,29.69,SW,231,6.0,13.0,54,0.00,,SCT090,0.00,VWS V14.00,2013-02-20 23:00:00,
2013-02-20 18:05:00,25.9,11.6,29.69,SW,214,3.0,13.0,54,0.00,,SCT090,0.00,VWS V14.00,2013-02-20 23:05:00,
2013-02-20 18:10:00,25.9,11.6,29.69,SW,222,4.0,14.0,54,0.00,,SCT090,0.00,VWS V14.00,2013-02-20 23:10:00,
2013-02-20 18:15:00,25.8,11.5,29.70,NW,321,2.0,14.0,54,0.00,,SCT090,0.00,VWS V14.00,2013-02-20 23:15:00,
2013-02-20 18:20:00,25.8,11.5,29.69,NNW,332,8.0,15.0,54,0.00,,SCT090,0.00,VWS V14.00,2013-02-20 23:20:00,
2013-02-20 18:25:00,25.8,10.6,29.70,West,271,6.0,23.0,52,0.00,,SCT090,0.00,VWS V14.00,2013-02-20 23:25:00,
2013-02-20 18:30:00,25.8,11.0,29.70,WSW,248,1.0,11.0,53,0.00,,SCT090,0.00,VWS V14.00,2013-02-20 23:30:00,
2013-02-20 18:35:00,25.6,11.3,29.71,NNW,337,15.0,24.0,54,0.00,,SCT090,0.00,VWS V14.00,2013-02-20 23:35:00,
2013-02-20 18:40:00,25.7,10.9,29.70,WSW,250,1.0,24.0,53,0.00,,SCT090,0.00,VWS V14.00,2013-02-20 23:40:00,
2013-02-20 18:45:00,25.5,11.2,29.70,NW,306,12.0,24.0,54,0.00,,SCT090,0.00,VWS V14.00,2013-02-20 23:45:00,
2013-02-20 18:50:00,25.5,10.8,29.71,NW,323,3.0,24.0,53,0.00,,SCT090,0.00,VWS V14.00,2013-02-20 23:50:00,
2013-02-20 18:54:00,25.5,11.2,29.71,NNW,340,3.0,24.0,54,0.00,,SCT090,0.00,VWS V14.00,2013-02-20 23:54:00,
2013-02-20 19:00:00,25.3,11.0,29.71,West,259,1.0,10.0,54,0.00,,FEW060,0.00,VWS V14.00,2013-02-21 00:00:00,
2013-02-20 19:04:00,25.2,10.9,29.71,NNW,331,2.0,12.0,54,0.00,,FEW060,0.00,VWS V14.00,2013-02-21 00:04:00,
2013-02-20 19:09:00,25.2,10.9,29.71,NW,315,2.0,12.0,54,0.00,,FEW060,0.00,VWS V14.00,2013-02-21 00:09:00,
2013-02-20 19:14:00,25.2,11.3,29.71,NW,326,7.0,12.0,55,0.00,,FEW060,0.00,VWS V14.00,2013-02-21 00:14:00,
2013-02-20 19:19:00,25.2,11.3,29.71,WSW,253,4.0,18.0,55,0.00,,FEW060,0.00,VWS V14.00,2013-02-21 00:19:00,
2013-02-20 19:24:00,25.2,10.9,29.71,NW,310,3.0,18.0,54,0.00,,FEW060,0.00,VWS V14.00,2013-02-21 00:24:00,
2013-02-20 19:29:00,25.2,10.9,29.72,North,1,3.0,8.0,54,0.00,,FEW060,0.00,VWS V14.00,2013-02-21 00:29:00,
2013-02-20 19:34:00,25.1,11.2,29.72,WNW,289,3.0,8.0,55,0.00,,FEW060,0.00,VWS V14.00,2013-02-21 00:34:00,
2013-02-20 19:39:00,25.1,11.2,29.71,NW,312,5.0,19.0,55,0.00,,FEW060,0.00,VWS V14.00,2013-02-21 00:39:00,
2013-02-20 19:44:00,25.1,11.6,29.72,WNW,294,1.0,19.0,56,0.00,,FEW060,0.00,VWS V14.00,2013-02-21 00:44:00,
2013-02-20 19:49:00,25.1,12.0,29.72,East,87,8.0,19.0,57,0.00,,FEW060,0.00,VWS V14.00,2013-02-21 00:49:00,
2013-02-20 19:54:00,25.0,11.9,29.72,North,350,8.0,19.0,57,0.00,,FEW060,0.00,VWS V14.00,2013-02-21 00:54:00,
2013-02-20 19:59:00,25.0,11.5,29.71,WSW,256,2.0,6.0,56,0.00,,OVC075,0.00,VWS V14.00,2013-02-21 00:59:00,
2013-02-20 20:04:00,25.1,12.4,29.72,SW,214,2.0,6.0,58,0.00,,OVC075,0.00,VWS V14.00,2013-02-21 01:04:00,
2013-02-20 20:09:00,25.1,12.4,29.72,NNW,346,2.0,11.0,58,0.00,,OVC075,0.00,VWS V14.00,2013-02-21 01:09:00,
2013-02-20 20:14:00,25.0,12.3,29.72,SW,223,4.0,11.0,58,0.00,,OVC075,0.00,VWS V14.00,2013-02-21 01:14:00,
2013-02-20 20:19:00,25.0,12.3,29.72,NNW,346,2.0,14.0,58,0.00,,OVC075,0.00,VWS V14.00,2013-02-21 01:19:00,
2013-02-20 20:24:00,24.9,12.2,29.72,NW,313,5.0,14.0,58,0.00,,OVC075,0.00,VWS V14.00,2013-02-21 01:24:00,
2013-02-20 20:29:00,24.9,12.2,29.72,NW,325,5.0,9.0,58,0.00,,OVC075,0.00,VWS V14.00,2013-02-21 01:29:00,
2013-02-20 20:34:00,24.9,12.6,29.72,SW,214,2.0,14.0,59,0.00,,OVC075,0.00,VWS V14.00,2013-02-21 01:34:00,
2013-02-20 20:39:00,24.7,12.4,29.72,NW,313,1.0,15.0,59,0.00,,OVC075,0.00,VWS V14.00,2013-02-21 01:39:00,
2013-02-20 20:44:00,24.6,12.3,29.72,North,359,2.0,15.0,59,0.00,,OVC075,0.00,VWS V14.00,2013-02-21 01:44:00,
2013-02-20 20:49:00,24.6,12.3,29.72,NNW,343,3.0,15.0,59,0.00,,OVC075,0.00,VWS V14.00,2013-02-21 01:49:00,
2013-02-20 20:54:00,24.5,12.6,29.73,WNW,289,4.0,15.0,60,0.00,,OVC075,0.00,VWS V14.00,2013-02-21 01:54:00,
2013-02-20 20:59:00,24.3,12.4,29.73,North,350,2.0,9.0,60,0.00,,BKN090,0.00,VWS V14.00,2013-02-21 01:59:00,
2013-02-20 21:04:00,24.3,12.4,29.73,West,272,7.0,9.0,60,0.00,,BKN090,0.00,VWS V14.00,2013-02-21 02:04:00,
2013-02-20 21:09:00,24.2,12.3,29.73,WNW,299,4.0,11.0,60,0.00,,BKN090,0.00,VWS V14.00,2013-02-21 02:09:00,
2013-02-20 21:14:00,24.1,12.2,29.73,West,270,3.0,13.0,60,0.00,,BKN090,0.00,VWS V14.00,2013-02-21 02:14:00,
2013-02-20 21:19:00,24.2,12.7,29.73,WSW,247,2.0,13.0,61,0.00,,BKN090,0.00,VWS V14.00,2013-02-21 02:19:00,
2013-02-20 21:24:00,24.0,12.9,29.73,WNW,299,8.0,13.0,62,0.00,,BKN090,0.00,VWS V14.00,2013-02-21 02:24:00,
2013-02-20 21:29:00,24.0,12.9,29.73,NNW,343,7.0,8.0,62,0.00,,BKN090,0.00,VWS V14.00,2013-02-21 02:29:00,
2013-02-20 21:34:00,23.9,12.4,29.73,NNW,329,0.0,10.0,61,0.00,,BKN090,0.00,VWS V14.00,2013-02-21 02:34:00,
2013-02-20 21:39:00,23.8,12.7,29.73,WSW,248,4.0,14.0,62,0.00,,BKN090,0.00,VWS V14.00,2013-02-21 02:39:00,
2013-02-20 21:44:00,23.9,12.8,29.73,SW,232,1.0,14.0,62,0.00,,BKN090,0.00,VWS V14.00,2013-02-21 02:44:00,
2013-02-20 21:49:00,23.8,12.7,29.74,West,273,2.0,14.0,62,0.00,,BKN090,0.00,VWS V14.00,2013-02-21 02:49:00,
2013-02-20 21:54:00,23.9,13.1,29.73,North,358,2.0,14.0,63,0.00,,BKN090,0.00,VWS V14.00,2013-02-21 02:54:00,
2013-02-20 21:59:00,23.9,13.1,29.74,NW,305,6.0,8.0,63,0.00,,CLR,0.00,VWS V14.00,2013-02-21 02:59:00,
2013-02-20 22:04:00,23.7,13.0,29.74,ENE,57,6.0,11.0,63,0.00,,CLR,0.00,VWS V14.00,2013-02-21 03:04:00,
2013-02-20 22:09:00,23.7,13.0,29.74,NNW,328,2.0,11.0,63,0.00,,CLR,0.00,VWS V14.00,2013-02-21 03:09:00,
2013-02-20 22:14:00,23.7,13.3,29.74,NE,36,3.0,11.0,64,0.00,,CLR,0.00,VWS V14.00,2013-02-21 03:14:00,
2013-02-20 22:19:00,23.7,13.3,29.75,NNW,332,7.0,22.0,64,0.00,,CLR,0.00,VWS V14.00,2013-02-21 03:19:00,
2013-02-20 22:24:00,23.9,13.1,29.74,NW,321,4.0,22.0,63,0.00,,CLR,0.00,VWS V14.00,2013-02-21 03:24:00,
2013-02-20 22:29:00,23.8,13.4,29.74,NNW,341,5.0,9.0,64,0.00,,CLR,0.00,VWS V14.00,2013-02-21 03:29:00,
2013-02-20 22:34:00,23.9,13.5,29.75,NNW,346,6.0,9.0,64,0.00,,CLR,0.00,VWS V14.00,2013-02-21 03:34:00,
2013-02-20 22:39:00,23.8,13.4,29.75,NNW,336,6.0,18.0,64,0.00,,CLR,0.00,VWS V14.00,2013-02-21 03:39:00,
2013-02-20 22:44:00,24.0,13.6,29.75,WNW,298,4.0,18.0,64,0.00,,CLR,0.00,VWS V14.00,2013-02-21 03:44:00,
2013-02-20 22:49:00,24.0,14.0,29.76,WSW,258,3.0,18.0,65,0.00,,CLR,0.00,VWS V14.00,2013-02-21 03:49:00,
2013-02-20 22:54:00,24.1,14.1,29.76,West,270,7.0,18.0,65,0.00,,CLR,0.00,VWS V14.00,2013-02-21 03:54:00,
2013-02-20 22:59:00,24.0,14.0,29.76,NW,305,6.0,9.0,65,0.00,,CLR,0.00,VWS V14.00,2013-02-21 03:59:00,
2013-02-20 23:04:00,24.1,14.1,29.76,North,349,10.0,18.0,65,0.00,,CLR,0.00,VWS V14.00,2013-02-21 04:04:00,
2013-02-20 23:09:00,24.1,14.1,29.76,North,1,4.0,18.0,65,0.00,,CLR,0.00,VWS V14.00,2013-02-21 04:09:00,
2013-02-20 23:14:00,24.2,14.1,29.77,NW,325,4.0,18.0,65,0.00,,CLR,0.00,VWS V14.00,2013-02-21 04:14:00,
2013-02-20 23:19:00,24.1,14.1,29.76,WNW,293,3.0,18.0,65,0.00,,CLR,0.00,VWS V14.00,2013-02-21 04:19:00,
2013-02-20 23:24:00,24.1,14.4,29.76,NNW,348,3.0,18.0,66,0.00,,CLR,0.00,VWS V14.00,2013-02-21 04:24:00,
2013-02-20 23:29:00,24.1,14.4,29.76,NNW,332,1.0,5.0,66,0.00,,CLR,0.00,VWS V14.00,2013-02-21 04:29:00,
2013-02-20 23:34:00,24.3,14.6,29.76,North,349,5.0,13.0,66,0.00,,CLR,0.00,VWS V14.00,2013-02-21 04:34:00,
2013-02-20 23:39:00,24.3,14.6,29.76,SSW,199,2.0,13.0,66,0.00,,CLR,0.00,VWS V14.00,2013-02-21 04:39:00,
2013-02-20 23:44:00,24.3,14.2,29.76,North,359,3.0,15.0,65,0.00,,CLR,0.00,VWS V14.00,2013-02-21 04:44:00,
2013-02-20 23:49:00,24.3,14.6,29.76,NW,310,2.0,15.0,66,0.00,,CLR,0.00,VWS V14.00,2013-02-21 04:49:00,
2013-02-20 23:54:00,24.3,14.6,29.76,North,352,5.0,15.0,66,0.00,,CLR,0.00,VWS V14.00,2013-02-21 04:54:00,